Time,TemperatureF,DewpointF,PressureIn,WindDirection,WindDirectionDegrees,WindSpeedMPH,WindSpeedGustMPH,Humidity,HourlyPrecipIn,Conditions,Clouds,dailyrainin,SolarRadiationWatts/m^2,SoftwareType,DateUTC
2013-03-25 00:00:00,29.9,26.8,29.76,ESE,109,0.0,0.0,88,0.00,,,0.00,0,Wunderground v.1.15,2013-03-25 04:00:00,
2013-03-25 00:05:00,29.9,26.8,29.76,ESE,109,0.0,0.0,88,0.00,,,0.00,0,Wunderground v.1.15,2013-03-25 04:05:00,
2013-03-25 00:10:00,29.8,26.7,29.76,ESE,109,0.0,0.0,88,0.00,,,0.00,0,Wunderground v.1.15,2013-03-25 04:10:00,
2013-03-25 00:20:00,29.7,26.9,29.76,ESE,109,0.0,0.0,89,0.00,,,0.00,0,Wunderground v.1.15,2013-03-25 04:20:00,
2013-03-25 00:30:00,29.7,26.9,29.76,ESE,109,0.0,0.0,89,0.00,,,0.00,0,Wunderground v.1.15,2013-03-25 04:30:00,
2013-03-25 00:40:00,29.6,26.8,29.76,ESE,109,0.0,0.0,89,0.00,,,0.00,0,Wunderground v.1.15,2013-03-25 04:40:00,
2013-03-25 00:45:00,29.6,26.8,29.76,ESE,109,0.0,0.0,89,0.00,,,0.00,0,Wunderground v.1.15,2013-03-25 04:45:00,
2013-03-25 00:55:00,29.6,26.8,29.75,ESE,109,0.0,0.0,89,0.00,,,0.00,0,Wunderground v.1.15,2013-03-25 04:55:00,
2013-03-25 01:00:00,29.5,26.7,29.75,ESE,109,0.0,0.0,89,0.00,,,0.00,0,Wunderground v.1.15,2013-03-25 05:00:00,
2013-03-25 01:10:00,29.5,26.4,29.75,ESE,109,0.0,0.0,88,0.00,,,0.00,0,Wunderground v.1.15,2013-03-25 05:10:00,
2013-03-25 01:20:00,29.3,26.2,29.75,ESE,107,0.0,0.0,88,0.00,,,0.00,0,Wunderground v.1.15,2013-03-25 05:20:00,
2013-03-25 01:30:00,29.2,26.1,29.75,ESE,107,0.0,0.0,88,0.00,,,0.00,0,Wunderground v.1.15,2013-03-25 05:30:00,
2013-03-25 01:35:00,29.3,25.9,29.75,ESE,107,0.0,0.0,87,0.00,,,0.00,0,Wunderground v.1.15,2013-03-25 05:35:00,
2013-03-25 01:45:00,29.0,25.6,29.75,ESE,107,0.0,0.0,87,0.00,,,0.00,0,Wunderground v.1.15,2013-03-25 05:45:00,
2013-03-25 01:55:00,28.9,25.8,29.75,ESE,107,0.0,0.0,88,0.00,,,0.00,0,Wunderground v.1.15,2013-03-25 05:55:00,
2013-03-25 02:00:00,29.0,25.9,29.74,ESE,107,0.0,0.0,88,0.00,,,0.00,0,Wunderground v.1.15,2013-03-25 06:00:00,
2013-03-25 02:10:00,28.7,25.3,29.74,ESE,107,0.0,0.0,87,0.00,,,0.00,0,Wunderground v.1.15,2013-03-25 06:10:00,
2013-03-25 02:15:00,28.4,25.0,29.74,ESE,107,0.0,0.0,87,0.00,,,0.00,0,Wunderground v.1.15,2013-03-25 06:15:00,
2013-03-25 02:25:00,28.0,24.9,29.74,ESE,107,0.0,0.0,88,0.00,,,0.00,0,Wunderground v.1.15,2013-03-25 06:25:00,
2013-03-25 02:35:00,27.7,24.9,29.74,ESE,107,0.0,0.0,89,0.00,,,0.00,0,Wunderground v.1.15,2013-03-25 06:35:00,
2013-03-25 02:45:00,27.4,24.6,29.74,ESE,107,0.0,0.0,89,0.00,,,0.00,0,Wunderground v.1.15,2013-03-25 06:45:00,
2013-03-25 02:55:00,27.2,24.7,29.74,ESE,107,0.0,0.0,90,0.00,,,0.00,0,Wunderground v.1.15,2013-03-25 06:55:00,
2013-03-25 03:00:00,27.1,24.6,29.74,ESE,107,0.0,0.0,90,0.00,,,0.00,0,Wunderground v.1.15,2013-03-25 07:00:00,
2013-03-25 03:10:00,27.0,24.5,29.74,ESE,107,0.0,0.0,90,0.00,,,0.00,0,Wunderground v.1.15,2013-03-25 07:10:00,
2013-03-25 03:20:00,26.8,24.5,29.74,ESE,107,0.0,0.0,91,0.00,,,0.00,0,Wunderground v.1.15,2013-03-25 07:20:00,
2013-03-25 03:30:00,26.8,24.5,29.73,ESE,107,0.0,0.0,91,0.00,,,0.00,0,Wunderground v.1.15,2013-03-25 07:30:00,
2013-03-25 03:35:00,26.8,24.3,29.73,ESE,107,0.0,0.0,90,0.00,,,0.00,0,Wunderground v.1.15,2013-03-25 07:35:00,
2013-03-25 03:45:00,26.6,24.1,29.73,ESE,107,0.0,0.0,90,0.00,,,0.00,0,Wunderground v.1.15,2013-03-25 07:45:00,
2013-03-25 03:55:00,26.5,24.0,29.73,ESE,107,0.0,0.0,90,0.00,,,0.00,0,Wunderground v.1.15,2013-03-25 07:55:00,
2013-03-25 04:00:00,26.4,23.9,29.72,ESE,107,0.0,0.0,90,0.00,,,0.00,0,Wunderground v.1.15,2013-03-25 08:00:00,
2013-03-25 04:10:00,26.4,23.9,29.73,ESE,107,0.0,0.0,90,0.00,,,0.00,0,Wunderground v.1.15,2013-03-25 08:10:00,
2013-03-25 04:20:00,26.4,24.1,29.72,ESE,107,0.0,0.0,91,0.00,,,0.00,0,Wunderground v.1.15,2013-03-25 08:20:00,
2013-03-25 04:30:00,26.4,24.1,29.72,ESE,107,0.0,0.0,91,0.00,,,0.00,0,Wunderground v.1.15,2013-03-25 08:30:00,
2013-03-25 04:40:00,26.4,23.9,29.72,ESE,107,0.0,0.0,90,0.00,,,0.00,0,Wunderground v.1.15,2013-03-25 08:40:00,
2013-03-25 04:45:00,26.4,23.9,29.71,ESE,107,0.0,0.0,90,0.00,,,0.00,0,Wunderground v.1.15,2013-03-25 08:45:00,
2013-03-25 04:55:00,26.3,23.5,29.71,ESE,107,0.0,0.0,89,0.00,,,0.00,0,Wunderground v.1.15,2013-03-25 08:55:00,
2013-03-25 05:00:00,26.2,23.4,29.71,ESE,107,0.0,0.0,89,0.00,,,0.00,0,Wunderground v.1.15,2013-03-25 09:00:00,
2013-03-25 05:10:00,26.1,23.3,29.71,ESE,107,0.0,0.0,89,0.00,,,0.00,0,Wunderground v.1.15,2013-03-25 09:10:00,
2013-03-25 05:20:00,25.9,23.1,29.70,ESE,107,0.0,0.0,89,0.00,,,0.00,0,Wunderground v.1.15,2013-03-25 09:20:00,
2013-03-25 05:30:00,25.8,23.0,29.70,ESE,107,0.0,0.0,89,0.00,,,0.00,0,Wunderground v.1.15,2013-03-25 09:30:00,
2013-03-25 05:40:00,25.6,22.8,29.70,ESE,107,0.0,0.0,89,0.00,,,0.00,0,Wunderground v.1.15,2013-03-25 09:40:00,
2013-03-25 05:45:00,25.6,23.1,29.70,ESE,107,0.0,0.0,90,0.00,,,0.00,0,Wunderground v.1.15,2013-03-25 09:45:00,
2013-03-25 05:55:00,25.8,23.0,29.70,ESE,107,0.0,0.0,89,0.00,,,0.00,0,Wunderground v.1.15,2013-03-25 09:55:00,
2013-03-25 06:00:00,25.9,23.4,29.70,ESE,107,0.0,0.0,90,0.00,,,0.00,0,Wunderground v.1.15,2013-03-25 10:00:00,
2013-03-25 06:10:00,26.2,23.4,29.70,ESE,107,0.0,0.0,89,0.00,,,0.00,0,Wunderground v.1.15,2013-03-25 10:10:00,
2013-03-25 06:20:00,26.2,23.1,29.69,ESE,107,0.0,0.0,88,0.00,,,0.00,0,Wunderground v.1.15,2013-03-25 10:20:00,
2013-03-25 06:30:00,26.2,23.4,29.69,ESE,107,0.0,0.0,89,0.00,,,0.00,0,Wunderground v.1.15,2013-03-25 10:30:00,
2013-03-25 06:40:00,26.3,23.2,29.69,ESE,107,0.0,0.0,88,0.00,,,0.00,0,Wunderground v.1.15,2013-03-25 10:40:00,
2013-03-25 06:50:00,26.0,23.2,29.69,ESE,107,0.0,0.0,89,0.00,,,0.00,7,Wunderground v.1.15,2013-03-25 10:50:00,
2013-03-25 07:00:00,26.0,23.2,29.69,ESE,107,0.0,0.0,89,0.00,,,0.00,16,Wunderground v.1.15,2013-03-25 11:00:00,
2013-03-25 07:10:00,26.3,23.5,29.69,ESE,107,0.0,0.0,89,0.00,,,0.00,25,Wunderground v.1.15,2013-03-25 11:10:00,
2013-03-25 07:15:00,26.4,23.6,29.70,ESE,107,0.0,0.0,89,0.00,,,0.00,30,Wunderground v.1.15,2013-03-25 11:15:00,
2013-03-25 07:25:00,26.6,23.5,29.70,ESE,107,0.0,0.0,88,0.00,,,0.00,44,Wunderground v.1.15,2013-03-25 11:25:00,
2013-03-25 07:35:00,27.0,23.9,29.71,ESE,107,0.0,0.0,88,0.00,,,0.00,58,Wunderground v.1.15,2013-03-25 11:35:00,
2013-03-25 07:40:00,27.2,24.1,29.70,ESE,107,0.0,0.0,88,0.00,,,0.00,65,Wunderground v.1.15,2013-03-25 11:40:00,
2013-03-25 07:50:00,27.4,24.3,29.70,ESE,107,0.0,0.0,88,0.00,,,0.00,84,Wunderground v.1.15,2013-03-25 11:50:00,
2013-03-25 08:00:00,28.2,24.8,29.71,ESE,107,0.0,0.0,87,0.00,,,0.00,107,Wunderground v.1.15,2013-03-25 12:00:00,
2013-03-25 08:10:00,29.3,25.1,29.70,ESE,107,0.0,0.0,84,0.00,,,0.00,121,Wunderground v.1.15,2013-03-25 12:10:00,
2013-03-25 08:20:00,30.0,25.5,29.71,ESE,107,0.0,0.0,83,0.00,,,0.00,132,Wunderground v.1.15,2013-03-25 12:20:00,
2013-03-25 08:30:00,30.8,25.7,29.70,ESE,107,0.0,0.0,81,0.00,,,0.00,149,Wunderground v.1.15,2013-03-25 12:30:00,
2013-03-25 08:35:00,31.3,25.8,29.70,ESE,107,0.0,0.0,80,0.00,,,0.00,162,Wunderground v.1.15,2013-03-25 12:35:00,
2013-03-25 08:45:00,32.3,26.5,29.70,ESE,107,0.0,0.0,79,0.00,,,0.00,178,Wunderground v.1.15,2013-03-25 12:45:00,
2013-03-25 08:55:00,33.4,27.0,29.70,ESE,107,0.0,0.0,77,0.00,,,0.00,243,Wunderground v.1.15,2013-03-25 12:55:00,
2013-03-25 09:05:00,34.3,27.5,29.70,NNW,339,0.0,0.0,76,0.00,,,0.00,260,Wunderground v.1.15,2013-03-25 13:05:00,
2013-03-25 09:15:00,35.0,28.2,29.69,NNW,339,0.0,0.0,76,0.00,,,0.00,276,Wunderground v.1.15,2013-03-25 13:15:00,
2013-03-25 09:25:00,35.8,28.6,29.69,NNW,333,0.0,2.0,75,0.00,,,0.00,308,Wunderground v.1.15,2013-03-25 13:25:00,
2013-03-25 09:35:00,36.4,28.9,29.69,ENE,68,1.0,2.0,74,0.00,,,0.00,315,Wunderground v.1.15,2013-03-25 13:35:00,
2013-03-25 09:45:00,36.8,29.0,29.69,WNW,300,1.0,1.0,73,0.00,,,0.00,371,Wunderground v.1.15,2013-03-25 13:45:00,
2013-03-25 09:50:00,36.9,29.1,29.68,WNW,289,2.0,2.0,73,0.00,,,0.00,396,Wunderground v.1.15,2013-03-25 13:50:00,
2013-03-25 10:00:00,37.1,28.9,29.68,East,97,1.0,3.0,72,0.00,,,0.00,371,Wunderground v.1.15,2013-03-25 14:00:00,
2013-03-25 10:10:00,37.2,29.0,29.68,SE,129,2.0,3.0,72,0.00,,,0.00,352,Wunderground v.1.15,2013-03-25 14:10:00,
2013-03-25 10:15:00,37.2,29.0,29.67,NNE,16,2.0,3.0,72,0.00,,,0.00,350,Wunderground v.1.15,2013-03-25 14:15:00,
2013-03-25 10:25:00,37.9,29.7,29.67,North,5,1.0,1.0,72,0.00,,,0.00,364,Wunderground v.1.15,2013-03-25 14:25:00,
2013-03-25 10:35:00,38.3,29.7,29.67,NW,322,1.0,2.0,71,0.00,,,0.00,387,Wunderground v.1.15,2013-03-25 14:35:00,
2013-03-25 10:40:00,38.6,30.0,29.67,SE,130,2.0,4.0,71,0.00,,,0.00,401,Wunderground v.1.15,2013-03-25 14:40:00,
2013-03-25 10:50:00,39.0,30.0,29.66,North,5,3.0,3.0,70,0.00,,,0.00,369,Wunderground v.1.15,2013-03-25 14:50:00,
2013-03-25 11:00:00,39.0,29.7,29.66,South,173,3.0,3.0,69,0.00,,,0.00,355,Wunderground v.1.15,2013-03-25 15:00:00,
2013-03-25 11:10:00,39.4,30.1,29.66,ESE,111,3.0,3.0,69,0.00,,,0.00,399,Wunderground v.1.15,2013-03-25 15:10:00,
2013-03-25 11:15:00,39.4,29.7,29.66,East,100,4.0,5.0,68,0.00,,,0.00,429,Wunderground v.1.15,2013-03-25 15:15:00,
2013-03-25 11:25:00,39.8,30.1,29.66,ESE,105,3.0,4.0,68,0.00,,,0.00,457,Wunderground v.1.15,2013-03-25 15:25:00,
2013-03-25 11:35:00,40.3,30.2,29.65,SE,135,3.0,4.0,67,0.00,,,0.00,515,Wunderground v.1.15,2013-03-25 15:35:00,
2013-03-25 11:45:00,40.7,30.6,29.65,ESE,115,3.0,3.0,67,0.00,,,0.00,445,Wunderground v.1.15,2013-03-25 15:45:00,
2013-03-25 11:50:00,40.7,30.6,29.65,SE,129,3.0,5.0,67,0.00,,,0.00,483,Wunderground v.1.15,2013-03-25 15:50:00,
2013-03-25 12:00:00,41.2,31.1,29.64,ESE,112,2.0,2.0,67,0.00,,,0.00,554,Wunderground v.1.15,2013-03-25 16:00:00,
2013-03-25 12:10:00,41.5,31.0,29.64,East,93,2.0,2.0,66,0.00,,,0.00,610,Wunderground v.1.15,2013-03-25 16:10:00,
2013-03-25 12:20:00,41.7,31.5,29.63,SE,146,2.0,2.0,67,0.00,,,0.00,468,Wunderground v.1.15,2013-03-25 16:20:00,
2013-03-25 12:30:00,42.2,31.6,29.63,ESE,112,2.0,5.0,66,0.00,,,0.00,782,Wunderground v.1.15,2013-03-25 16:30:00,
2013-03-25 12:35:00,42.4,31.1,29.63,ESE,115,3.0,5.0,64,0.00,,,0.00,497,Wunderground v.1.15,2013-03-25 16:35:00,
2013-03-25 12:45:00,43.1,31.0,29.62,East,99,4.0,5.0,62,0.00,,,0.00,290,Wunderground v.1.15,2013-03-25 16:45:00,
2013-03-25 12:55:00,42.0,30.7,29.62,East,80,5.0,5.0,64,0.00,,,0.00,253,Wunderground v.1.15,2013-03-25 16:55:00,
2013-03-25 13:00:00,42.0,31.1,29.62,East,95,4.0,4.0,65,0.00,,,0.00,272,Wunderground v.1.15,2013-03-25 17:00:00,
2013-03-25 13:10:00,42.1,31.6,29.62,ESE,111,2.0,2.0,66,0.00,,,0.00,230,Wunderground v.1.15,2013-03-25 17:10:00,
2013-03-25 13:20:00,42.1,31.6,29.62,SE,136,1.0,1.0,66,0.00,,,0.00,299,Wunderground v.1.15,2013-03-25 17:20:00,
2013-03-25 13:30:00,43.1,32.5,29.61,ESE,117,4.0,12.0,66,0.00,,,0.00,919,Wunderground v.1.15,2013-03-25 17:30:00,
2013-03-25 13:40:00,44.1,33.5,29.61,ENE,58,5.0,5.0,66,0.00,,,0.00,380,Wunderground v.1.15,2013-03-25 17:40:00,
2013-03-25 13:45:00,43.9,32.5,29.60,ESE,107,3.0,9.0,64,0.00,,,0.00,520,Wunderground v.1.15,2013-03-25 17:45:00,
2013-03-25 13:55:00,44.0,32.2,29.60,ESE,117,4.0,5.0,63,0.00,,,0.00,884,Wunderground v.1.15,2013-03-25 17:55:00,
2013-03-25 14:00:00,44.2,32.8,29.60,East,94,4.0,7.0,64,0.00,,,0.00,501,Wunderground v.1.15,2013-03-25 18:00:00,
2013-03-25 14:10:00,42.6,32.4,29.60,SE,136,7.0,7.0,67,0.00,,,0.00,984,Wunderground v.1.15,2013-03-25 18:10:00,
2013-03-25 14:20:00,43.3,32.3,29.60,East,90,5.0,7.0,65,0.00,,,0.00,341,Wunderground v.1.15,2013-03-25 18:20:00,
2013-03-25 14:30:00,43.0,32.8,29.59,ESE,117,6.0,6.0,67,0.00,,,0.00,269,Wunderground v.1.15,2013-03-25 18:30:00,
2013-03-25 14:35:00,42.7,32.9,29.60,East,94,6.0,7.0,68,0.00,,,0.00,840,Wunderground v.1.15,2013-03-25 18:35:00,
2013-03-25 14:40:00,42.9,33.1,29.59,East,98,6.0,10.0,68,0.00,,,0.00,861,Wunderground v.1.15,2013-03-25 18:40:00,
2013-03-25 14:50:00,43.6,33.4,29.59,East,101,6.0,6.0,67,0.00,,,0.00,816,Wunderground v.1.15,2013-03-25 18:50:00,
2013-03-25 15:00:00,42.9,33.1,29.58,ESE,104,5.0,5.0,68,0.00,,,0.00,758,Wunderground v.1.15,2013-03-25 19:00:00,
2013-03-25 15:10:00,43.3,33.1,29.57,ENE,77,3.0,11.0,67,0.00,,,0.00,733,Wunderground v.1.15,2013-03-25 19:10:00,
2013-03-25 15:20:00,42.9,33.1,29.57,East,95,6.0,6.0,68,0.00,,,0.00,571,Wunderground v.1.15,2013-03-25 19:20:00,
2013-03-25 15:30:00,42.6,32.8,29.55,SE,132,4.0,4.0,68,0.00,,,0.00,737,Wunderground v.1.15,2013-03-25 19:30:00,
2013-03-25 15:35:00,43.2,33.0,29.55,SE,133,3.0,4.0,67,0.00,,,0.00,745,Wunderground v.1.15,2013-03-25 19:35:00,
2013-03-25 15:45:00,42.8,33.0,29.54,SE,132,4.0,6.0,68,0.00,,,0.00,183,Wunderground v.1.15,2013-03-25 19:45:00,
2013-03-25 15:55:00,42.3,32.1,29.53,ESE,105,4.0,4.0,67,0.00,,,0.00,603,Wunderground v.1.15,2013-03-25 19:55:00,
2013-03-25 16:00:00,43.0,32.4,29.52,SSW,211,4.0,4.0,66,0.00,,,0.00,619,Wunderground v.1.15,2013-03-25 20:00:00,
2013-03-25 16:10:00,42.2,31.6,29.52,ESE,113,4.0,4.0,66,0.00,,,0.00,520,Wunderground v.1.15,2013-03-25 20:10:00,
2013-03-25 16:20:00,42.5,31.9,29.53,South,171,3.0,3.0,66,0.00,,,0.00,234,Wunderground v.1.15,2013-03-25 20:20:00,
2013-03-25 16:30:00,41.9,31.7,29.53,East,99,4.0,8.0,67,0.00,,,0.00,269,Wunderground v.1.15,2013-03-25 20:30:00,
2013-03-25 16:40:00,41.4,31.6,29.53,South,181,4.0,5.0,68,0.00,,,0.00,171,Wunderground v.1.15,2013-03-25 20:40:00,
2013-03-25 16:45:00,41.3,31.5,29.53,ESE,112,2.0,6.0,68,0.00,,,0.00,304,Wunderground v.1.15,2013-03-25 20:45:00,
2013-03-25 16:55:00,41.2,31.4,29.53,SSW,205,3.0,3.0,68,0.00,,,0.00,234,Wunderground v.1.15,2013-03-25 20:55:00,
2013-03-25 17:00:00,40.9,31.5,29.53,SE,130,3.0,3.0,69,0.00,,,0.00,200,Wunderground v.1.15,2013-03-25 21:00:00,
2013-03-25 17:10:00,40.9,31.5,29.54,SSW,196,2.0,2.0,69,0.00,,,0.00,197,Wunderground v.1.15,2013-03-25 21:10:00,
2013-03-25 17:20:00,40.8,31.4,29.54,ENE,61,4.0,4.0,69,0.00,,,0.00,283,Wunderground v.1.15,2013-03-25 21:20:00,
2013-03-25 17:30:00,41.0,33.0,29.54,ESE,118,3.0,3.0,73,0.00,,,0.00,313,Wunderground v.1.15,2013-03-25 21:30:00,
2013-03-25 17:35:00,40.9,31.1,29.53,ESE,113,2.0,7.0,68,0.00,,,0.00,128,Wunderground v.1.15,2013-03-25 21:35:00,
2013-03-25 17:45:00,40.2,30.8,29.53,SE,142,3.0,5.0,69,0.00,,,0.00,160,Wunderground v.1.15,2013-03-25 21:45:00,
2013-03-25 17:55:00,40.0,31.0,29.54,ENE,76,2.0,2.0,70,0.00,,,0.00,113,Wunderground v.1.15,2013-03-25 21:55:00,
2013-03-25 18:00:00,39.8,31.2,29.54,West,260,1.0,1.0,71,0.00,,,0.00,107,Wunderground v.1.15,2013-03-25 22:00:00,
2013-03-25 18:10:00,39.9,31.3,29.54,SE,141,1.0,1.0,71,0.00,,,0.00,44,Wunderground v.1.15,2013-03-25 22:10:00,
2013-03-25 18:20:00,39.6,31.0,29.54,South,186,1.0,1.0,71,0.00,,,0.00,25,Wunderground v.1.15,2013-03-25 22:20:00,
2013-03-25 18:30:00,39.4,30.8,29.54,ESE,107,1.0,1.0,71,0.00,,,0.00,26,Wunderground v.1.15,2013-03-25 22:30:00,
2013-03-25 18:40:00,39.3,30.7,29.55,SSE,151,1.0,1.0,71,0.00,,,0.00,23,Wunderground v.1.15,2013-03-25 22:40:00,
2013-03-25 18:50:00,39.1,30.8,29.55,ENE,61,0.0,0.0,72,0.00,,,0.00,11,Wunderground v.1.15,2013-03-25 22:50:00,
2013-03-25 19:00:00,38.7,30.4,29.55,SE,132,1.0,6.0,72,0.00,,,0.00,0,Wunderground v.1.15,2013-03-25 23:00:00,
2013-03-25 19:10:00,38.5,30.6,29.55,SSW,204,1.0,1.0,73,0.00,,,0.00,0,Wunderground v.1.15,2013-03-25 23:10:00,
2013-03-25 19:15:00,38.2,30.3,29.55,NW,311,0.0,3.0,73,0.00,,,0.00,0,Wunderground v.1.15,2013-03-25 23:15:00,
2013-03-25 19:20:00,38.3,30.1,29.55,ESE,117,0.0,0.0,72,0.00,,,0.00,0,Wunderground v.1.15,2013-03-25 23:20:00,
2013-03-25 19:30:00,38.2,30.0,29.55,SSE,148,1.0,1.0,72,0.00,,,0.00,0,Wunderground v.1.15,2013-03-25 23:30:00,
2013-03-25 19:40:00,37.9,30.0,29.55,WNW,290,0.0,0.0,73,0.00,,,0.00,0,Wunderground v.1.15,2013-03-25 23:40:00,
2013-03-25 19:50:00,37.7,30.2,29.56,West,267,1.0,1.0,74,0.00,,,0.00,0,Wunderground v.1.15,2013-03-25 23:50:00,
2013-03-25 20:00:00,37.4,30.2,29.56,NNW,327,1.0,2.0,75,0.00,,,0.00,0,Wunderground v.1.15,2013-03-26 00:00:00,
2013-03-25 20:10:00,37.4,30.2,29.57,South,183,0.0,2.0,75,0.00,,,0.00,0,Wunderground v.1.15,2013-03-26 00:10:00,
2013-03-25 20:20:00,37.4,30.2,29.57,SE,127,1.0,1.0,75,0.00,,,0.00,0,Wunderground v.1.15,2013-03-26 00:20:00,
2013-03-25 20:30:00,37.0,30.1,29.57,NW,313,1.0,4.0,76,0.00,,,0.00,0,Wunderground v.1.15,2013-03-26 00:30:00,
2013-03-25 20:35:00,37.0,30.1,29.57,NE,53,1.0,4.0,76,0.00,,,0.00,0,Wunderground v.1.15,2013-03-26 00:35:00,
2013-03-25 20:45:00,37.1,29.9,29.57,NNW,346,1.0,1.0,75,0.00,,,0.00,0,Wunderground v.1.15,2013-03-26 00:45:00,
2013-03-25 20:50:00,36.9,30.0,29.57,NE,49,1.0,1.0,76,0.00,,,0.00,0,Wunderground v.1.15,2013-03-26 00:50:00,
2013-03-25 20:55:00,36.9,29.7,29.57,WNW,288,1.0,1.0,75,0.00,,,0.00,0,Wunderground v.1.15,2013-03-26 00:55:00,
2013-03-25 21:00:00,36.8,29.9,29.57,NNW,342,1.0,1.0,76,0.00,,,0.00,0,Wunderground v.1.15,2013-03-26 01:00:00,
2013-03-25 21:10:00,36.5,30.0,29.57,NW,318,1.0,4.0,77,0.00,,,0.00,0,Wunderground v.1.15,2013-03-26 01:10:00,
2013-03-25 21:20:00,36.3,29.8,29.57,NW,309,1.0,1.0,77,0.00,,,0.00,0,Wunderground v.1.15,2013-03-26 01:20:00,
2013-03-25 21:30:00,36.5,29.7,29.57,NNW,330,2.0,3.0,76,0.00,,,0.00,0,Wunderground v.1.15,2013-03-26 01:30:00,
2013-03-25 21:40:00,36.8,29.6,29.56,NNW,341,2.0,2.0,75,0.00,,,0.00,0,Wunderground v.1.15,2013-03-26 01:40:00,
2013-03-25 21:45:00,36.8,29.6,29.56,NW,322,3.0,5.0,75,0.00,,,0.00,0,Wunderground v.1.15,2013-03-26 01:45:00,
2013-03-25 21:55:00,36.7,29.5,29.56,North,355,2.0,3.0,75,0.00,,,0.00,0,Wunderground v.1.15,2013-03-26 01:55:00,
2013-03-25 22:00:00,36.5,29.3,29.56,WNW,297,1.0,2.0,75,0.00,,,0.00,0,Wunderground v.1.15,2013-03-26 02:00:00,
2013-03-25 22:10:00,36.5,29.0,29.56,NW,308,4.0,5.0,74,0.00,,,0.00,0,Wunderground v.1.15,2013-03-26 02:10:00,
2013-03-25 22:15:00,36.5,29.3,29.56,North,5,4.0,5.0,75,0.00,,,0.00,0,Wunderground v.1.15,2013-03-26 02:15:00,
2013-03-25 22:25:00,36.5,29.0,29.56,NW,306,3.0,3.0,74,0.00,,,0.00,0,Wunderground v.1.15,2013-03-26 02:25:00,
2013-03-25 22:35:00,36.5,28.7,29.55,North,355,3.0,4.0,73,0.00,,,0.00,0,Wunderground v.1.15,2013-03-26 02:35:00,
2013-03-25 22:45:00,36.5,28.7,29.55,North,5,3.0,6.0,73,0.00,,,0.00,0,Wunderground v.1.15,2013-03-26 02:45:00,
2013-03-25 22:50:00,36.5,28.3,29.55,NNW,338,3.0,3.0,72,0.00,,,0.00,0,Wunderground v.1.15,2013-03-26 02:50:00,
2013-03-25 23:00:00,36.5,28.3,29.55,North,355,3.0,3.0,72,0.00,,,0.00,0,Wunderground v.1.15,2013-03-26 03:00:00,
2013-03-25 23:10:00,36.5,28.3,29.55,NNW,348,2.0,4.0,72,0.00,,,0.00,0,Wunderground v.1.15,2013-03-26 03:10:00,
2013-03-25 23:20:00,36.4,28.6,29.55,NNW,342,2.0,2.0,73,0.00,,,0.00,0,Wunderground v.1.15,2013-03-26 03:20:00,
2013-03-25 23:30:00,36.3,28.5,29.55,NW,321,2.0,3.0,73,0.00,,,0.00,0,Wunderground v.1.15,2013-03-26 03:30:00,
2013-03-25 23:35:00,36.3,28.1,29.54,North,349,3.0,3.0,72,0.00,,,0.00,0,Wunderground v.1.15,2013-03-26 03:35:00,
2013-03-25 23:45:00,36.3,28.1,29.54,NNW,329,2.0,3.0,72,0.00,,,0.00,0,Wunderground v.1.15,2013-03-26 03:45:00,
2013-03-25 23:55:00,36.3,28.1,29.54,NNW,346,3.0,3.0,72,0.00,,,0.00,0,Wunderground v.1.15,2013-03-26 03:55:00,